Location: Unspecified
(0.0000°N, 0.0000°E)
Time: 18:58:34
(UTC+00:00)

Vanguard 2 Rocket - Pass Details

Date: 25 November 2019
Orbit: 554 x 3326 km, 32.9° (Epoch: 09 December)

Event Time Altitude Azimuth Distance (km) Brightness Sun altitude
Rises 17:09:25 0° 227° (SW) 6,914 12.8 8.8°
Reaches altitude 10° 17:14:52 10° 222° (SW) 5,564 12.2 7.5°
Maximum altitude 17:29:23 48° 152° (SSE) 2,349 9.0 4.1°
Drops below altitude 10° 17:37:47 10° 80° (E) 3,320 9.2 2.2°
Sets 17:40:10 0° 74° (ENE) 4,005 9.5 1.6°
